^^
Your Local Weather - Clay, NY Station Historical Data
Daily Summary for January 29, 2017 Units:  Metric    English   Both
« Previous Day
Next Day »
Daily Weekly Monthly Yearly Custom
  High: Low: Average:
Temperature: 0 °C -5 °C -1.3 °C
Dew Point: -4.6 °C -10.3 °C -7.3 °C
Humidity: 87% 51% 65%
Wind Speed: 9.7km/h 0km/h 5.8km/h
Wind Gust: 22.5km/h - -
Wind- - West
Pressure: 1007 hPa 1000.9 hPa -
Precipitation: 0 mm    
Historical Graphs
 
 
Tabular Data for January 29, 2017
Time Temperature Dew Point Pressure Wind Wind Speed Wind Gust Humidity Rainfall Rate (Hourly) solar
00:02 -0.3 °C -4.7 °C 1001.2 hPa SSW 8 km/h 14.5 km/h 72% 0 mm 0 W/m2
00:08 -0.3 °C -4.6 °C 1001.2 hPa SW 6.4 km/h 14.5 km/h 73% 0 mm 0 W/m2
00:13 -0.3 °C -4.6 °C 1001.2 hPa SSW 4.8 km/h 9.7 km/h 73% 0 mm 0 W/m2
00:20 -0.3 °C -4.6 °C 1001.2 hPa West 6.4 km/h 6.4 km/h 73% 0 mm 0 W/m2
00:25 -0.3 °C -4.6 °C 1001.2 hPa SSW 6.4 km/h 8 km/h 73% 0 mm 0 W/m2
00:32 -0.3 °C -4.6 °C 1001.2 hPa SW 6.4 km/h 6.4 km/h 73% 0 mm 0 W/m2
00:38 -0.3 °C -4.6 °C 1001.2 hPa SSW 6.4 km/h 11.3 km/h 73% 0 mm 0 W/m2
00:44 -0.3 °C -4.6 °C 1000.9 hPa SSW 4.8 km/h 4.8 km/h 73% 0 mm 0 W/m2
00:50 -0.3 °C -4.6 °C 1000.9 hPa SSW 6.4 km/h 6.4 km/h 73% 0 mm 0 W/m2
00:55 -0.3 °C -4.6 °C 1000.9 hPa SSW 8 km/h 9.7 km/h 73% 0 mm 0 W/m2
01:02 -0.3 °C -4.6 °C 1000.9 hPa SSW 6.4 km/h 9.7 km/h 73% 0 mm 0 W/m2
01:08 -0.3 °C -4.7 °C 1000.9 hPa SW 6.4 km/h 9.7 km/h 72% 0 mm 0 W/m2
01:14 -0.3 °C -4.7 °C 1000.9 hPa SW 6.4 km/h 9.7 km/h 72% 0 mm 0 W/m2
01:20 -0.2 °C -4.8 °C 1000.9 hPa SW 8 km/h 20.9 km/h 71% 0 mm 0 W/m2
01:26 -0.2 °C -4.8 °C 1000.9 hPa WSW 8 km/h 20.9 km/h 71% 0 mm 0 W/m2
01:32 -0.2 °C -5 °C 1000.9 hPa SW 6.4 km/h 11.3 km/h 70% 0 mm 0 W/m2
01:38 -0.2 °C -5 °C 1000.9 hPa SSW 6.4 km/h 11.3 km/h 70% 0 mm 0 W/m2
01:44 -0.1 °C -4.9 °C 1000.9 hPa WSW 6.4 km/h 6.4 km/h 70% 0 mm 0 W/m2
01:50 -0.2 °C -5 °C 1000.9 hPa SSW 4.8 km/h 4.8 km/h 70% 0 mm 0 W/m2
01:56 -0.2 °C -5 °C 1000.9 hPa West 4.8 km/h 17.7 km/h 70% 0 mm 0 W/m2
02:02 -0.1 °C -5.1 °C 1000.9 hPa WSW 4.8 km/h 8 km/h 69% 0 mm 0 W/m2
02:08 -0.1 °C -5.1 °C 1000.9 hPa SW 3.2 km/h 16.1 km/h 69% 0 mm 0 W/m2
02:14 -0.1 °C -5.3 °C 1000.9 hPa SSE 4.8 km/h 11.3 km/h 68% 0 mm 0 W/m2
02:20 0 °C -5.2 °C 1001.2 hPa West 8 km/h 8 km/h 68% 0 mm 0 W/m2
02:26 0 °C -5.2 °C 1001.2 hPa SW 8 km/h 11.3 km/h 68% 0 mm 0 W/m2
02:32 -0.1 °C -5.1 °C 1001.2 hPa SW 8 km/h 14.5 km/h 69% 0 mm 0 W/m2
02:38 -0.1 °C -5.1 °C 1001.2 hPa SW 8 km/h 14.5 km/h 69% 0 mm 0 W/m2
02:44 -0.1 °C -5.1 °C 1001.2 hPa West 4.8 km/h 9.7 km/h 69% 0 mm 0 W/m2
02:50 -0.1 °C -5.1 °C 1001.2 hPa SW 4.8 km/h 9.7 km/h 69% 0 mm 0 W/m2
02:56 -0.2 °C -5.2 °C 1001.2 hPa SSW 4.8 km/h 9.7 km/h 69% 0 mm 0 W/m2
03:02 -0.2 °C -5.2 °C 1001.2 hPa WSW 4.8 km/h 9.7 km/h 69% 0 mm 0 W/m2
03:08 -0.2 °C -5.2 °C 1001.2 hPa SW 6.4 km/h 9.7 km/h 69% 0 mm 0 W/m2
03:14 -0.2 °C -5.2 °C 1001.2 hPa SW 6.4 km/h 6.4 km/h 69% 0 mm 0 W/m2
03:20 -0.2 °C -5.4 °C 1001.2 hPa West 4.8 km/h 6.4 km/h 68% 0 mm 0 W/m2
03:26 -0.2 °C -5.4 °C 1001.2 hPa SSW 6.4 km/h 8 km/h 68% 0 mm 0 W/m2
03:32 -0.3 °C -5.5 °C 1001.2 hPa SW 4.8 km/h 6.4 km/h 68% 0 mm 0 W/m2
03:38 -0.3 °C -5.3 °C 1001.2 hPa West 4.8 km/h 6.4 km/h 69% 0 mm 0 W/m2
03:44 -0.3 °C -5.5 °C 1001.2 hPa South 4.8 km/h 8 km/h 68% 0 mm 0 W/m2
03:50 -0.3 °C -5.3 °C 1001.2 hPa WSW 6.4 km/h 6.4 km/h 69% 0 mm 0 W/m2
03:56 -0.3 °C -5.5 °C 1001.2 hPa WSW 8 km/h 22.5 km/h 68% 0 mm 0 W/m2
04:02 -0.3 °C -5.3 °C 1000.9 hPa West 8 km/h 11.3 km/h 69% 0 mm 0 W/m2
04:08 -0.3 °C -5.3 °C 1000.9 hPa West 6.4 km/h 12.9 km/h 69% 0 mm 0 W/m2
04:14 -0.3 °C -5.3 °C 1001.2 hPa WSW 8 km/h 11.3 km/h 69% 0 mm 0 W/m2
04:20 -0.4 °C -5.2 °C 1001.2 hPa West 6.4 km/h 12.9 km/h 70% 0 mm 0 W/m2
04:26 -0.4 °C -5.3 °C 1001.2 hPa West 6.4 km/h 12.9 km/h 70% 0 mm 0 W/m2
04:32 -0.4 °C -5.3 °C 1001.2 hPa West 8 km/h 8 km/h 70% 0 mm 0 W/m2
04:38 -0.4 °C -5.3 °C 1001.2 hPa West 6.4 km/h 8 km/h 70% 0 mm 0 W/m2
04:44 -0.5 °C -5.3 °C 1001.2 hPa WSW 4.8 km/h 11.3 km/h 70% 0 mm 0 W/m2
04:50 -0.6 °C -5.3 °C 1001.6 hPa WSW 6.4 km/h 6.4 km/h 70% 0 mm 0 W/m2
04:56 -0.6 °C -5.4 °C 1001.6 hPa SW 6.4 km/h 12.9 km/h 70% 0 mm 0 W/m2
05:02 -0.7 °C -5.4 °C 1001.6 hPa WSW 6.4 km/h 11.3 km/h 70% 0 mm 0 W/m2
05:08 -0.7 °C -5.3 °C 1001.6 hPa SW 8 km/h 14.5 km/h 71% 0 mm 0 W/m2
05:14 -0.7 °C -5.3 °C 1001.6 hPa WSW 8 km/h 11.3 km/h 71% 0 mm 0 W/m2
05:20 -0.8 °C -5.4 °C 1001.6 hPa WSW 6.4 km/h 14.5 km/h 71% 0 mm 0 W/m2
05:26 -0.9 °C -5.3 °C 1001.2 hPa WSW 3.2 km/h 14.5 km/h 72% 0 mm 0 W/m2
05:32 -1 °C -5.4 °C 1001.6 hPa West 3.2 km/h 3.2 km/h 72% 0 mm 0 W/m2
05:38 -1 °C -5.2 °C 1001.6 hPa WSW 4.8 km/h 11.3 km/h 73% 0 mm 0 W/m2
05:44 -1 °C -5.2 °C 1001.6 hPa WSW 6.4 km/h 6.4 km/h 73% 0 mm 0 W/m2
05:50 -1 °C -5.2 °C 1001.6 hPa SW 4.8 km/h 8 km/h 73% 0 mm 0 W/m2
05:56 -1 °C -5.2 °C 1001.6 hPa WNW 6.4 km/h 8 km/h 73% 0 mm 0 W/m2
06:02 -1 °C -5.2 °C 1001.9 hPa West 8 km/h 14.5 km/h 73% 0 mm 0 W/m2
06:08 -1.1 °C -5.3 °C 1001.9 hPa SW 8 km/h 14.5 km/h 73% 0 mm 0 W/m2
06:14 -1.2 °C -5.4 °C 1001.9 hPa West 4.8 km/h 11.3 km/h 73% 0 mm 0 W/m2
06:20 -1.2 °C -5.4 °C 1001.9 hPa WSW 6.4 km/h 6.4 km/h 73% 0 mm 0 W/m2
06:26 -1.2 °C -5.4 °C 1001.9 hPa WNW 4.8 km/h 8 km/h 73% 0 mm 0 W/m2
06:38 -1.1 °C -5.3 °C 1001.9 hPa WNW 6.4 km/h 11.3 km/h 73% 0 mm 0 W/m2
06:44 -1 °C -5.4 °C 1001.9 hPa West 6.4 km/h 8 km/h 72% 0 mm 0 W/m2
06:50 -1 °C -5.4 °C 1001.9 hPa West 4.8 km/h 4.8 km/h 72% 0 mm 0 W/m2
06:56 -1 °C -5.4 °C 1001.9 hPa WSW 3.2 km/h 4.8 km/h 72% 0 mm 0 W/m2
07:02 -1 °C -5.4 °C 1001.9 hPa West 3.2 km/h 4.8 km/h 72% 0 mm 0 W/m2
07:08 -0.9 °C -5.6 °C 1001.9 hPa West 4.8 km/h 6.4 km/h 71% 0 mm 0 W/m2
07:14 -0.9 °C -5.6 °C 1001.9 hPa WSW 4.8 km/h 8 km/h 71% 0 mm 0 W/m2
07:20 -0.9 °C -5.5 °C 1001.9 hPa West 6.4 km/h 6.4 km/h 71% 0 mm 0 W/m2
07:26 -0.9 °C -5.5 °C 1001.9 hPa West 6.4 km/h 12.9 km/h 71% 0 mm 0 W/m2
07:32 -0.9 °C -5.5 °C 1001.9 hPa West 6.4 km/h 6.4 km/h 71% 0 mm 5 W/m2
07:38 -0.9 °C -5.5 °C 1001.9 hPa West 6.4 km/h 9.7 km/h 71% 0 mm 9 W/m2
07:44 -0.9 °C -5.6 °C 1002.3 hPa West 6.4 km/h 11.3 km/h 71% 0 mm 9 W/m2
07:50 -0.9 °C -5.6 °C 1002.3 hPa SW 6.4 km/h 9.7 km/h 71% 0 mm 11 W/m2
07:56 -0.9 °C -5.6 °C 1002.3 hPa SW 6.4 km/h 9.7 km/h 71% 0 mm 14 W/m2
08:02 -0.9 °C -5.5 °C 1002.3 hPa WSW 6.4 km/h 6.4 km/h 71% 0 mm 18 W/m2
08:08 -0.9 °C -5.7 °C 1002.6 hPa WNW 6.4 km/h 8 km/h 70% 0 mm 19 W/m2
08:14 -0.9 °C -5.5 °C 1002.6 hPa SW 4.8 km/h 6.4 km/h 71% 0 mm 28 W/m2
08:20 -0.9 °C -5.7 °C 1002.6 hPa SW 6.4 km/h 6.4 km/h 70% 0 mm 30 W/m2
08:26 -0.9 °C -5.9 °C 1002.9 hPa West 6.4 km/h 9.7 km/h 69% 0 mm 32 W/m2
08:32 -0.9 °C -5.9 °C 1002.9 hPa SSW 8 km/h 9.7 km/h 69% 0 mm 32 W/m2
08:38 -0.9 °C -5.7 °C 1002.9 hPa WSW 6.4 km/h 14.5 km/h 70% 0 mm 32 W/m2
08:44 -0.9 °C -5.9 °C 1002.9 hPa SSW 6.4 km/h 9.7 km/h 69% 0 mm 35 W/m2
08:50 -0.9 °C -5.7 °C 1003.3 hPa West 6.4 km/h 12.9 km/h 70% 0 mm 40 W/m2
08:56 -0.9 °C -5.7 °C 1003.3 hPa South 6.4 km/h 12.9 km/h 70% 0 mm 44 W/m2
09:02 -1 °C -5.8 °C 1003.3 hPa SSW 6.4 km/h 19.3 km/h 70% 0 mm 53 W/m2
09:08 -0.9 °C -5.9 °C 1003.3 hPa SW 8 km/h 19.3 km/h 69% 0 mm 60 W/m2
09:14 -1 °C -6.3 °C 1003.3 hPa WSW 8 km/h 11.3 km/h 67% 0 mm 62 W/m2
09:20 -0.9 °C -6.5 °C 1003.3 hPa West 9.7 km/h 9.7 km/h 66% 0 mm 67 W/m2
09:26 -0.9 °C -6.3 °C 1003.6 hPa SW 8 km/h 9.7 km/h 67% 0 mm 65 W/m2
09:32 -0.9 °C -6.3 °C 1003.6 hPa West 6.4 km/h 8 km/h 67% 0 mm 69 W/m2
09:38 -0.9 °C -6.3 °C 1003.6 hPa WSW 6.4 km/h 8 km/h 67% 0 mm 63 W/m2
09:44 -0.9 °C -6.1 °C 1003.6 hPa SW 3.2 km/h 4.8 km/h 68% 0 mm 65 W/m2
09:50 -0.9 °C -6.3 °C 1003.6 hPa West 4.8 km/h 4.8 km/h 67% 0 mm 74 W/m2
09:56 -0.9 °C -6.3 °C 1003.9 hPa WSW 4.8 km/h 9.7 km/h 67% 0 mm 83 W/m2
10:02 -0.9 °C -6.4 °C 1003.9 hPa WNW 6.4 km/h 17.7 km/h 66% 0 mm 93 W/m2
10:08 -0.8 °C -6.6 °C 1003.9 hPa SW 8 km/h 17.7 km/h 65% 0 mm 104 W/m2
10:14 -0.8 °C -6.6 °C 1003.9 hPa SSW 8 km/h 12.9 km/h 65% 0 mm 107 W/m2
10:20 -0.8 °C -6.7 °C 1003.9 hPa SW 8 km/h 8 km/h 64% 0 mm 109 W/m2
10:26 -0.8 °C -7.2 °C 1004.3 hPa West 6.4 km/h 14.5 km/h 62% 0 mm 105 W/m2
10:32 -0.8 °C -7.4 °C 1004.3 hPa West 6.4 km/h 8 km/h 61% 0 mm 102 W/m2
10:38 -0.7 °C -7.3 °C 1004.3 hPa WNW 6.4 km/h 8 km/h 61% 0 mm 105 W/m2
10:44 -0.7 °C -7.3 °C 1004.3 hPa WSW 4.8 km/h 8 km/h 61% 0 mm 123 W/m2
10:50 -0.8 °C -7.8 °C 1004.3 hPa West 8 km/h 8 km/h 59% 0 mm 128 W/m2
10:56 -0.8 °C -7.6 °C 1004.3 hPa West 8 km/h 11.3 km/h 60% 0 mm 134 W/m2
11:02 -0.8 °C -8 °C 1004.3 hPa SW 8 km/h 8 km/h 58% 0 mm 134 W/m2
11:08 -0.8 °C -8.2 °C 1004.3 hPa SSW 6.4 km/h 12.9 km/h 57% 0 mm 135 W/m2
11:14 -0.8 °C -8.1 °C 1004.3 hPa West 8 km/h 12.9 km/h 58% 0 mm 141 W/m2
11:20 -0.8 °C -8.2 °C 1004.3 hPa WSW 8 km/h 8 km/h 57% 0 mm 153 W/m2
11:26 -0.7 °C -8.4 °C 1004.3 hPa SSW 8 km/h 9.7 km/h 56% 0 mm 172 W/m2
11:32 -0.7 °C -7.9 °C 1004.3 hPa SSW 9.7 km/h 11.3 km/h 58% 0 mm 188 W/m2
11:38 -0.6 °C -8.3 °C 1004.3 hPa WSW 8 km/h 16.1 km/h 56% 0 mm 186 W/m2
11:44 -0.6 °C -8.3 °C 1003.9 hPa WSW 9.7 km/h 9.7 km/h 56% 0 mm 192 W/m2
11:50 -0.6 °C -8.3 °C 1003.9 hPa West 8 km/h 8 km/h 56% 0 mm 207 W/m2
11:56 -0.6 °C -8.5 °C 1003.9 hPa WNW 8 km/h 17.7 km/h 55% 0 mm 199 W/m2
12:02 -0.4 °C -8.4 °C 1003.9 hPa WNW 9.7 km/h 9.7 km/h 55% 0 mm 174 W/m2
12:08 -0.5 °C -8.9 °C 1003.9 hPa SW 9.7 km/h 11.3 km/h 53% 0 mm 179 W/m2
12:14 -0.5 °C -8.7 °C 1003.9 hPa West 8 km/h 9.7 km/h 54% 0 mm 227 W/m2
12:20 -0.3 °C -8.5 °C 1003.9 hPa WSW 8 km/h 14.5 km/h 54% 0 mm 243 W/m2
12:26 -0.3 °C -9 °C 1003.9 hPa West 9.7 km/h 14.5 km/h 52% 0 mm 248 W/m2
12:32 -0.3 °C -9 °C 1003.9 hPa SSW 9.7 km/h 14.5 km/h 52% 0 mm 230 W/m2
12:38 -0.4 °C -9.1 °C 1003.9 hPa WNW 9.7 km/h 20.9 km/h 52% 0 mm 190 W/m2
12:44 -0.4 °C -9.3 °C 1003.9 hPa WSW 9.7 km/h 11.3 km/h 51% 0 mm 179 W/m2
12:50 -0.6 °C -9 °C 1003.9 hPa NW 9.7 km/h 9.7 km/h 53% 0 mm 169 W/m2
12:56 -0.7 °C -9.1 °C 1003.9 hPa WSW 9.7 km/h 12.9 km/h 53% 0 mm 160 W/m2
13:02 -0.6 °C -9.2 °C 1003.9 hPa West 6.4 km/h 8 km/h 52% 0 mm 167 W/m2
13:08 -0.6 °C -9 °C 1003.9 hPa West 8 km/h 8 km/h 53% 0 mm 176 W/m2
13:14 -0.4 °C -8.9 °C 1003.9 hPa WNW 6.4 km/h 16.1 km/h 53% 0 mm 193 W/m2
13:20 -0.5 °C -9.2 °C 1003.9 hPa WSW 8 km/h 9.7 km/h 52% 0 mm 193 W/m2
13:26 -0.4 °C -8.6 °C 1003.9 hPa WSW 8 km/h 12.9 km/h 54% 0 mm 190 W/m2
13:32 -0.5 °C -9.2 °C 1003.9 hPa NW 8 km/h 9.7 km/h 52% 0 mm 200 W/m2
13:38 -0.6 °C -9 °C 1003.9 hPa West 9.7 km/h 16.1 km/h 53% 0 mm 197 W/m2
13:44 -0.6 °C -8.7 °C 1003.9 hPa WSW 8 km/h 9.7 km/h 54% 0 mm 179 W/m2
13:50 -0.4 °C -8.6 °C 1003.9 hPa WNW 6.4 km/h 9.7 km/h 54% 0 mm 172 W/m2
13:56 -0.4 °C -8.6 °C 1003.9 hPa West 4.8 km/h 9.7 km/h 54% 0 mm 188 W/m2
14:02 -0.3 °C -8.1 °C 1003.9 hPa WNW 6.4 km/h 6.4 km/h 56% 0 mm 250 W/m2
14:08 -0.2 °C -8.2 °C 1003.9 hPa West 6.4 km/h 11.3 km/h 55% 0 mm 255 W/m2
14:14 -0.4 °C -8.6 °C 1003.9 hPa WNW 8 km/h 8 km/h 54% 0 mm 186 W/m2
14:20 -0.6 °C -8.3 °C 1003.9 hPa West 8 km/h 8 km/h 56% 0 mm 165 W/m2
14:26 -0.4 °C -7.9 °C 1003.9 hPa WNW 4.8 km/h 8 km/h 57% 0 mm 128 W/m2
14:32 -0.7 °C -8.4 °C 1003.9 hPa West 6.4 km/h 9.7 km/h 56% 0 mm 165 W/m2
14:38 -0.7 °C -8.4 °C 1003.9 hPa NW 8 km/h 9.7 km/h 56% 0 mm 176 W/m2
14:44 -0.6 °C -8.1 °C 1003.9 hPa West 6.4 km/h 8 km/h 57% 0 mm 183 W/m2
14:50 -0.6 °C -8.5 °C 1003.9 hPa West 6.4 km/h 8 km/h 55% 0 mm 155 W/m2
14:56 -0.7 °C -8.7 °C 1003.9 hPa West 8 km/h 8 km/h 55% 0 mm 113 W/m2
15:02 -0.7 °C -8.4 °C 1004.3 hPa WSW 6.4 km/h 6.4 km/h 56% 0 mm 120 W/m2
15:04 -0.7 °C -8.2 °C 1004.3 hPa WSW 4.8 km/h 6.4 km/h 57% 0 mm 118 W/m2
15:10 -0.7 °C -8.6 °C 1004.3 hPa West 4.8 km/h 8 km/h 55% 0 mm 100 W/m2
15:16 -0.8 °C -8.7 °C 1004.3 hPa WSW 6.4 km/h 8 km/h 55% 0 mm 84 W/m2
15:22 -0.7 °C -8.7 °C 1004.6 hPa NW 4.8 km/h 9.7 km/h 55% 0 mm 81 W/m2
15:28 -0.8 °C -8.5 °C 1004.6 hPa West 4.8 km/h 14.5 km/h 56% 0 mm 90 W/m2
15:34 -0.8 °C -8.5 °C 1004.6 hPa SW 4.8 km/h 6.4 km/h 56% 0 mm 84 W/m2
15:40 -0.9 °C -8.6 °C 1004.6 hPa West 4.8 km/h 4.8 km/h 56% 0 mm 74 W/m2
15:46 -0.9 °C -8.6 °C 1004.6 hPa West 4.8 km/h 6.4 km/h 56% 0 mm 76 W/m2
15:52 -0.9 °C -8.6 °C 1004.6 hPa WNW 4.8 km/h 6.4 km/h 56% 0 mm 67 W/m2
15:58 -0.9 °C -8.9 °C 1004.6 hPa West 4.8 km/h 8 km/h 55% 0 mm 65 W/m2
16:04 -1 °C -9.2 °C 1004.6 hPa West 6.4 km/h 6.4 km/h 54% 0 mm 69 W/m2
16:10 -1.1 °C -9.4 °C 1004.6 hPa WNW 6.4 km/h 6.4 km/h 53% 0 mm 74 W/m2
16:16 -1.1 °C -9.4 °C 1005 hPa SW 6.4 km/h 6.4 km/h 53% 0 mm 67 W/m2
16:22 -1.1 °C -9.4 °C 1005 hPa SSW 4.8 km/h 8 km/h 53% 0 mm 47 W/m2
16:28 -1.2 °C -9.6 °C 1005 hPa WSW 6.4 km/h 11.3 km/h 53% 0 mm 33 W/m2
16:34 -1.3 °C -9.4 °C 1005 hPa West 6.4 km/h 8 km/h 54% 0 mm 21 W/m2
16:42 -1.4 °C -9.5 °C 1005.3 hPa WNW 3.2 km/h 9.7 km/h 54% 0 mm 9 W/m2
16:48 -1.4 °C -9.7 °C 1005.3 hPa West 6.4 km/h 9.7 km/h 53% 0 mm 9 W/m2
16:54 -1.4 °C -9.8 °C 1005.3 hPa WSW 6.4 km/h 12.9 km/h 53% 0 mm 7 W/m2
17:00 -1.4 °C -10.1 °C 1005.6 hPa NW 6.4 km/h 9.7 km/h 52% 0 mm 5 W/m2
17:06 -1.4 °C -9.6 °C 1005.6 hPa WNW 4.8 km/h 9.7 km/h 54% 0 mm 0 W/m2
17:12 -1.5 °C -9.8 °C 1005.6 hPa West 6.4 km/h 6.4 km/h 53% 0 mm 0 W/m2
17:18 -1.6 °C -10.2 °C 1005.6 hPa WSW 6.4 km/h 8 km/h 52% 0 mm 0 W/m2
17:24 -1.6 °C -9.9 °C 1005.6 hPa West 4.8 km/h 6.4 km/h 53% 0 mm 0 W/m2
17:30 -1.6 °C -9.7 °C 1005.6 hPa WSW 4.8 km/h 6.4 km/h 54% 0 mm 0 W/m2
17:36 -1.6 °C -9.9 °C 1005.6 hPa West 4.8 km/h 6.4 km/h 53% 0 mm 0 W/m2
17:42 -1.7 °C -9.8 °C 1005.6 hPa WSW 4.8 km/h 4.8 km/h 54% 0 mm 0 W/m2
17:48 -1.7 °C -9.6 °C 1005.6 hPa West 3.2 km/h 4.8 km/h 55% 0 mm 0 W/m2
17:54 -1.7 °C -9.6 °C 1005.6 hPa West 3.2 km/h 4.8 km/h 55% 0 mm 0 W/m2
18:00 -1.7 °C -9.3 °C 1005.6 hPa West 4.8 km/h 4.8 km/h 56% 0 mm 0 W/m2
18:06 -1.7 °C -9.3 °C 1005.6 hPa West 4.8 km/h 6.4 km/h 56% 0 mm 0 W/m2
18:12 -1.7 °C -9.8 °C 1005.6 hPa SW 6.4 km/h 12.9 km/h 54% 0 mm 0 W/m2
18:18 -1.8 °C -9.9 °C 1005.6 hPa West 6.4 km/h 12.9 km/h 54% 0 mm 0 W/m2
18:24 -1.8 °C -9.9 °C 1005.6 hPa West 6.4 km/h 8 km/h 54% 0 mm 0 W/m2
18:30 -1.8 °C -9.9 °C 1006 hPa West 6.4 km/h 6.4 km/h 54% 0 mm 0 W/m2
18:36 -1.9 °C -9.7 °C 1006 hPa West 6.4 km/h 11.3 km/h 55% 0 mm 0 W/m2
18:42 -1.9 °C -9.8 °C 1006 hPa WSW 6.4 km/h 6.4 km/h 55% 0 mm 0 W/m2
18:48 -2 °C -9.8 °C 1006 hPa WNW 4.8 km/h 6.4 km/h 55% 0 mm 0 W/m2
18:54 -2 °C -9.6 °C 1006 hPa West 3.2 km/h 6.4 km/h 56% 0 mm 0 W/m2
19:00 -2.1 °C -9.7 °C 1006 hPa WSW 3.2 km/h 3.2 km/h 56% 0 mm 0 W/m2
19:06 -2.1 °C -9.7 °C 1006 hPa WNW 1.6 km/h 3.2 km/h 56% 0 mm 0 W/m2
19:12 -2.1 °C -9.9 °C 1006 hPa WNW 4.8 km/h 6.4 km/h 55% 0 mm 0 W/m2
19:18 -2.2 °C -10 °C 1006 hPa WSW 4.8 km/h 6.4 km/h 55% 0 mm 0 W/m2
19:24 -2.2 °C -9.8 °C 1006 hPa West 3.2 km/h 4.8 km/h 56% 0 mm 0 W/m2
19:30 -2.4 °C -10 °C 1006 hPa WSW 3.2 km/h 6.4 km/h 56% 0 mm 0 W/m2
19:36 -2.5 °C -10.1 °C 1006 hPa NW 3.2 km/h 6.4 km/h 56% 0 mm 0 W/m2
19:42 -2.6 °C -10.2 °C 1006 hPa WNW 3.2 km/h 4.8 km/h 56% 0 mm 0 W/m2
19:48 -2.6 °C -10.2 °C 1006 hPa West 3.2 km/h 4.8 km/h 56% 0 mm 0 W/m2
19:54 -2.7 °C -10.1 °C 1006 hPa WSW 3.2 km/h 6.4 km/h 57% 0 mm 0 W/m2
20:00 -2.7 °C -10.3 °C 1006 hPa WNW 3.2 km/h 3.2 km/h 56% 0 mm 0 W/m2
20:06 -2.7 °C -10.1 °C 1006.3 hPa WSW 3.2 km/h 11.3 km/h 57% 0 mm 0 W/m2
20:12 -2.8 °C -10.1 °C 1006.3 hPa WSW 4.8 km/h 4.8 km/h 57% 0 mm 0 W/m2
20:18 -2.7 °C -9.8 °C 1006.3 hPa WSW 3.2 km/h 6.4 km/h 58% 0 mm 0 W/m2
20:24 -2.7 °C -9.8 °C 1006.3 hPa WSW 4.8 km/h 4.8 km/h 58% 0 mm 0 W/m2
20:30 -2.7 °C -9.8 °C 1006.3 hPa West 4.8 km/h 4.8 km/h 58% 0 mm 0 W/m2
20:36 -2.7 °C -9.6 °C 1006.3 hPa West 3.2 km/h 4.8 km/h 59% 0 mm 0 W/m2
20:42 -2.7 °C -9.6 °C 1006.3 hPa West 1.6 km/h 11.3 km/h 59% 0 mm 0 W/m2
20:48 -2.7 °C -9.4 °C 1006.3 hPa WSW 3.2 km/h 11.3 km/h 60% 0 mm 0 W/m2
20:54 -2.7 °C -9.6 °C 1006.3 hPa WNW 3.2 km/h 4.8 km/h 59% 0 mm 0 W/m2
21:00 -2.7 °C -9.6 °C 1006.3 hPa WNW 4.8 km/h 4.8 km/h 59% 0 mm 0 W/m2
21:06 -2.8 °C -9.7 °C 1006.3 hPa West 3.2 km/h 8 km/h 59% 0 mm 0 W/m2
21:12 -2.8 °C -9.5 °C 1006.3 hPa WNW 3.2 km/h 3.2 km/h 60% 0 mm 0 W/m2
21:18 -2.8 °C -9.5 °C 1006.3 hPa West 1.6 km/h 3.2 km/h 60% 0 mm 0 W/m2
21:24 -2.8 °C -9.3 °C 1006.3 hPa West 1.6 km/h 1.6 km/h 61% 0 mm 0 W/m2
21:30 -2.9 °C -9.4 °C 1006.3 hPa NW 1.6 km/h 3.2 km/h 61% 0 mm 0 W/m2
21:36 -2.9 °C -9.4 °C 1006.3 hPa West 1.6 km/h 3.2 km/h 61% 0 mm 0 W/m2
21:42 -2.9 °C -9.2 °C 1006.3 hPa NNW 1.6 km/h 1.6 km/h 62% 0 mm 0 W/m2
21:48 -3 °C -9.1 °C 1006.3 hPa NNW 1.6 km/h 3.2 km/h 63% 0 mm 0 W/m2
21:54 -3.1 °C -7.2 °C 1006.3 hPa NNW 3.2 km/h 4.8 km/h 73% 0 mm 0 W/m2
22:00 -3.3 °C -6.7 °C 1006.3 hPa NNW 4.8 km/h 9.7 km/h 77% 0 mm 0 W/m2
22:06 -3.6 °C -6.6 °C 1006.3 hPa WNW 6.4 km/h 11.3 km/h 80% 0 mm 0 W/m2
22:18 -4.2 °C -6.4 °C 1006.7 hPa NW 4.8 km/h 8 km/h 85% 0 mm 0 W/m2
22:24 -4.4 °C -6.4 °C 1006.7 hPa NW 3.2 km/h 8 km/h 86% 0 mm 0 W/m2
22:26 -4.4 °C -6.2 °C 1006.7 hPa NNW 3.2 km/h 8 km/h 87% 0 mm 0 W/m2
22:28 -4.4 °C -6.3 °C 1006.7 hPa NNW 3.2 km/h 8 km/h 87% 0 mm 0 W/m2
22:34 -4.5 °C -6.3 °C 1006.7 hPa North 6.4 km/h 6.4 km/h 87% 0 mm 0 W/m2
22:40 -4.6 °C -6.4 °C 1006.7 hPa NW 6.4 km/h 6.4 km/h 87% 0 mm 0 W/m2
22:46 -4.6 °C -6.4 °C 1006.7 hPa NNW 6.4 km/h 6.4 km/h 87% 0 mm 0 W/m2
22:52 -4.6 °C -6.4 °C 1006.7 hPa NW 4.8 km/h 4.8 km/h 87% 0 mm 0 W/m2
22:58 -4.7 °C -6.7 °C 1006.7 hPa North 3.2 km/h 6.4 km/h 86% 0 mm 0 W/m2
23:04 -4.7 °C -6.8 °C 1006.7 hPa NNW 3.2 km/h 8 km/h 85% 0 mm 0 W/m2
23:08 -4.8 °C -6.9 °C 1006.7 hPa NNW 3.2 km/h 8 km/h 85% 0 mm 0 W/m2
23:14 -4.8 °C -7.1 °C 1006.7 hPa NNW 3.2 km/h 3.2 km/h 84% 0 mm 0 W/m2
23:20 -4.8 °C -7.1 °C 1006.7 hPa NNW 1.6 km/h 1.6 km/h 84% 0 mm 0 W/m2
23:26 -4.8 °C -7.1 °C 1006.7 hPa NNW 1.6 km/h 1.6 km/h 84% 0 mm 0 W/m2
23:32 -4.9 °C -7.3 °C 1006.7 hPa NNW 1.6 km/h 1.6 km/h 83% 0 mm 0 W/m2
23:38 -4.9 °C -7.5 °C 1006.7 hPa NNW 1.6 km/h 1.6 km/h 82% 0 mm 0 W/m2
23:44 -4.9 °C -7.5 °C 1007 hPa Calm   1.6 km/h 82% 0 mm 0 W/m2
23:50 -4.9 °C -7.7 °C 1006.7 hPa Calm     81% 0 mm 0 W/m2
23:56 -5 °C -7.8 °C 1006.7 hPa NNW 1.6 km/h 4.8 km/h 81% 0 mm 0 W/m2
Country Meadow, Clay, NY, USA
Compliments of Weather Underground - 2 mb